Regional Weather Roundup
Issued by NWS

Home | Current Version | Previous Version | Graphics & Text | Print | Product List | Glossary On
Versions: 1 2 3 4 5 6 7 8 9 10 11 12 13 14 15 16 17 18 19 20 21 22 23 24 25 26 27 28 29 30 31 32 33 34 35 36 37 38 39 40 41 42 43 44 45 46 47 48 49 50
000
ASUS45 KCYS 090410
RWRWY

WYOMING REGIONAL WEATHER ROUNDUP
NATIONAL WEATHER SERVICE CHEYENNE WY
900 PM MST MON FEB 08 2016

NOTE:  "FAIR" INDICATES FEW OR NO CLOUDS BELOW 12,000 FEET
WITH NO SIGNIFICANT WEATHER AND/OR OBSTRUCTIONS TO VISIBILITY.

WYZ001-090500-
YELLOWSTONE NATIONAL PARK

CITY           SKY/WX    TMP DP  RH WIND       PRES   REMARKS
LK YELLOWSTONE   N/A     21  18  88 CALM      30.57S
W YELLOWSTONE  NOT AVBL

$$
WYZ002>013-054>058-071-098>099-090500-
NORTHERN WYOMING

CITY           SKY/WX    TMP DP  RH WIND       PRES   REMARKS
JACKSON        FAIR      16  14  93 NE6       30.56F WCI   7
CODY           FAIR      28  16  59 S3        30.34F
GREYBULL       FAIR      29  21  72 SE5       30.37F WCI  24
WORLAND        FAIR      28  22  78 SE5       30.37S WCI  23
SHERIDAN       CLEAR     43  27  52 NW2       30.29R
BUFFALO        FAIR      45  26  47 N6        30.29F
GILLETTE       FAIR      34  27  75 W14       30.26F WCI  25
HULETT         MOCLDY    37  27  65 CALM      30.26S
NEWCASTLE      FAIR      30  21  69 N9        30.25S WCI  22

$$
WYZ014>020-022>026-101>103-090500-
CENTRAL WYOMING

CITY           SKY/WX    TMP DP  RH WIND       PRES   REMARKS
BIG PINEY      FAIR      29  22  75 N16       30.49S WCI  17
PINEDALE       FAIR      32  23  69 W22       30.47F WCI  19
DUBOIS         FAIR      36  21  55 W26G38    30.42S WCI  23
LANDER         FAIR      23  18  81 CALM      30.39S
RIVERTON       FAIR      24  16  71 SW5       30.40S WCI  18
CASPER         FAIR      33  21  61 SW17      30.36S WCI  22
DOUGLAS        FAIR      33  24  69 NW15        N/A  WCI  23

$$
WYZ021-027>030-104>119-090500-
SOUTHERN WYOMING

CITY           SKY/WX    TMP DP  RH WIND       PRES   REMARKS
EVANSTON       FAIR      31  18  58 SW3       30.57S
FORT BRIDGER   CLEAR     32  23  69 W18       30.57F WCI  20
ROCK SPRINGS   FAIR      29  22  75 W20       30.48S WCI  16
DIXON          FAIR      12   9  87 CALM      30.53F
RAWLINS        FAIR      27  17  66 W10       30.44S WCI  17
SARATOGA       FAIR      21  18  86 CALM      30.46S
LARAMIE        FAIR      32  18  56 NW15      30.36S WCI  22
CHEYENNE       FAIR      37  21  52 NW20G30   30.31S WCI  27
TORRINGTON     FAIR      36  26  67 NW14      30.27F WCI  27
PINE BLUFFS    FAIR      36  27  69 NW23G30   30.29F WCI  24

$$



USA.gov is the U.S. government's official web portal to all federal, state and local government web resources and services.